カタログに戻る

COSMOS 1328

運用中軍事PO
NORAD 12987·PAYLOAD·🇷🇺 Russia

打ち上げ Dec 3, 1981 から Plesetsk Cosmodrome

Loading…

次のパス (今後24時間)

TLE

最新Source: Space-Track

元期: Sep 14, 2026, 17:04 UTC

1 12987U 81117A   26257.71129075  .00008440  00000-0  23062-3 0  9991
2 12987  82.4913 157.8247 0008332 216.9917 143.0754 15.37192165443062

AllMySatでCOSMOS 1328をリアルタイム追跡

Download on the App Store